NORTHERN QUEENS  -  Air Quality Alert Air Quality Alert        SOUTHERN QUEENS  -  Air Quality Alert Air Quality Alert      

Active alerts

Northern Queens
  Details for Northern Queens Air Quality Alert
Southern Queens
  Details for Southern Queens Air Quality Alert


WXM80 ListenWXM80 Stop

You find our weather info also at:

UK Metoffice

WeatherCloud

Weather Underground

Northeastern Weather Network

AWEKAS

Citizen Weather Observer Program (CWOP)

HAMweather, WeatherForYou, PWS Weather


Weather Underground History page Text

Daily Summary for April 26, 2017 Units:  English    Metric   Both
« Previous Day
Next Day »
Daily Weekly Monthly Yearly Custom
  High: Low: Average:
Temperature: 59.5 °F 49.4 °F 53.4 °F
Dew Point: 58.4 °F 48.9 °F 52.7 °F
Humidity: 99 % 91 % 98 %
Wind Speed: 12.5 mph 0.0 mph 3.4 mph
Wind Gust: 18.4 mph - -
Wind:- - East
Pressure: 29.84 in 29.72 in -
Precipitation: 0.12 in    
Historical Graphs
 
 
Tabular Data for April 26, 2017
Time Temperature Dew Point Pressure Wind Wind Speed Wind Gust Humidity Rainfall Rate (Hourly)
00:01 49.4 °F 48.9 °F 29.84 in East 9.0 mph 9.2 mph 98 % 0.02 in
00:07 49.6 °F 49.1 °F 29.84 in ENE 10.4 mph 11.5 mph 98 % 0.02 in
00:12 49.9 °F 49.4 °F 29.83 in ENE 12.5 mph 18.4 mph 98 % 0.03 in
00:17 50.1 °F 49.6 °F 29.83 in ENE 9.3 mph 13.8 mph 98 % 0.02 in
00:22 50.1 °F 49.8 °F 29.83 in ENE 8.6 mph 11.5 mph 99 % 0.02 in
00:27 50.2 °F 49.9 °F 29.83 in East 7.2 mph 9.2 mph 99 % 0.02 in
00:32 50.3 °F 50.0 °F 29.83 in ENE 7.7 mph 10.4 mph 99 % 0.02 in
00:37 50.3 °F 50.0 °F 29.82 in East 8.2 mph 12.7 mph 99 % 0.02 in
00:42 50.4 °F 50.1 °F 29.82 in ENE 10.4 mph 16.1 mph 99 % 0.02 in
00:47 50.4 °F 49.9 °F 29.81 in ENE 12.0 mph 18.0 mph 98 % 0.02 in
00:52 50.4 °F 49.9 °F 29.81 in ENE 11.1 mph 14.0 mph 98 % 0.01 in
00:57 50.4 °F 49.9 °F 29.81 in ENE 6.6 mph 12.7 mph 98 % 0.01 in
01:03 50.4 °F 49.9 °F 29.80 in East 6.6 mph 12.7 mph 98 % 0.01 in
01:08 50.5 °F 50.0 °F 29.79 in East 10.1 mph 15.0 mph 98 % 0.01 in
01:13 50.6 °F 50.1 °F 29.79 in ENE 9.0 mph 11.5 mph 98 % 0.00 in
01:18 50.5 °F 50.0 °F 29.79 in East 9.0 mph 12.7 mph 98 % 0.00 in
01:23 50.4 °F 49.9 °F 29.79 in ENE 8.6 mph 12.7 mph 98 % 0.00 in
01:28 50.3 °F 50.0 °F 29.78 in East 7.4 mph 9.2 mph 99 % 0.00 in
01:33 50.3 °F 50.0 °F 29.78 in East 6.8 mph 8.1 mph 99 % 0.00 in
01:38 50.4 °F 50.1 °F 29.78 in ENE 7.9 mph 10.0 mph 99 % 0.00 in
01:43 50.5 °F 50.0 °F 29.77 in East 9.0 mph 10.4 mph 98 % 0.00 in
01:48 50.6 °F 50.1 °F 29.77 in ENE 8.7 mph 10.4 mph 98 % 0.00 in
01:54 50.8 °F 50.5 °F 29.77 in East 6.8 mph 9.2 mph 99 % 0.00 in
01:59 50.6 °F 50.1 °F 29.77 in East 7.4 mph 9.2 mph 98 % 0.00 in
02:04 50.5 °F 50.0 °F 29.78 in East 4.8 mph 8.1 mph 98 % 0.00 in
02:09 50.4 °F 49.9 °F 29.78 in ENE 3.2 mph 4.6 mph 98 % 0.00 in
02:14 50.4 °F 49.9 °F 29.78 in East 8.2 mph 10.4 mph 98 % 0.00 in
02:19 50.7 °F 50.2 °F 29.78 in East 8.9 mph 11.5 mph 98 % 0.00 in
02:24 50.7 °F 50.2 °F 29.77 in East 7.4 mph 10.4 mph 98 % 0.00 in
02:29 50.6 °F 50.1 °F 29.77 in East 6.1 mph 9.2 mph 98 % 0.00 in
02:34 50.5 °F 50.0 °F 29.77 in East 5.2 mph 6.9 mph 98 % 0.00 in
02:39 50.4 °F 49.9 °F 29.77 in East 3.7 mph 6.9 mph 98 % 0.00 in
02:44 50.3 °F 50.0 °F 29.77 in East 4.9 mph 6.0 mph 99 % 0.00 in
02:50 50.1 °F 49.8 °F 29.76 in ESE 1.3 mph 4.6 mph 99 % 0.00 in
02:55 50.1 °F 49.6 °F 29.76 in East 3.4 mph 7.0 mph 98 % 0.00 in
03:00 50.0 °F 49.5 °F 29.76 in East 3.4 mph 4.6 mph 98 % 0.00 in
03:05 50.1 °F 49.6 °F 29.76 in East 2.9 mph 5.8 mph 98 % 0.00 in
03:10 50.2 °F 49.9 °F 29.76 in ENE 3.3 mph 4.6 mph 99 % 0.00 in
03:15 50.4 °F 50.1 °F 29.75 in ENE 4.7 mph 8.1 mph 99 % 0.00 in
03:20 50.5 °F 50.0 °F 29.76 in East 5.0 mph 6.0 mph 98 % 0.00 in
03:25 50.6 °F 50.3 °F 29.75 in East 5.4 mph 6.0 mph 99 % 0.00 in
03:30 50.6 °F 50.3 °F 29.75 in East 5.3 mph 6.9 mph 99 % 0.00 in
03:35 50.5 °F 50.2 °F 29.74 in East 4.8 mph 5.8 mph 99 % 0.01 in
03:40 50.4 °F 50.1 °F 29.74 in East 4.5 mph 5.8 mph 99 % 0.02 in
03:45 50.3 °F 50.0 °F 29.74 in East 5.1 mph 5.8 mph 99 % 0.02 in
03:50 50.3 °F 50.0 °F 29.73 in ENE 3.3 mph 4.6 mph 99 % 0.02 in
03:56 50.3 °F 50.0 °F 29.73 in East 3.0 mph 7.0 mph 99 % 0.00 in
04:00 50.3 °F 50.0 °F 29.73 in ENE 3.2 mph 6.9 mph 99 % 0.02 in
04:01 50.3 °F 50.0 °F 29.73 in ENE 3.0 mph 6.9 mph 99 % 0.02 in
04:06 50.4 °F 50.1 °F 29.73 in ENE 5.3 mph 6.9 mph 99 % 0.03 in
04:11 50.5 °F 50.2 °F 29.72 in NE 3.0 mph 8.1 mph 99 % 0.03 in
04:16 50.5 °F 50.2 °F 29.73 in ENE 4.7 mph 7.0 mph 99 % 0.03 in
04:21 50.5 °F 50.2 °F 29.73 in NE 4.5 mph 5.0 mph 99 % 0.03 in
04:26 50.6 °F 50.3 °F 29.73 in ENE 4.8 mph 8.1 mph 99 % 0.03 in
04:31 50.6 °F 50.3 °F 29.73 in ENE 6.9 mph 9.2 mph 99 % 0.03 in
04:36 50.6 °F 50.3 °F 29.73 in ENE 7.0 mph 11.5 mph 99 % 0.02 in
04:41 50.6 °F 50.3 °F 29.73 in ENE 7.2 mph 10.4 mph 99 % 0.01 in
04:46 50.6 °F 50.3 °F 29.73 in ENE 9.4 mph 10.4 mph 99 % 0.01 in
04:52 50.6 °F 50.3 °F 29.73 in ENE 8.1 mph 11.5 mph 99 % 0.01 in
04:57 50.5 °F 50.2 °F 29.73 in East 7.2 mph 10.4 mph 99 % 0.01 in
05:02 50.5 °F 50.2 °F 29.74 in ENE 5.4 mph 9.2 mph 99 % 0.01 in
05:07 50.5 °F 50.2 °F 29.74 in East 4.2 mph 5.8 mph 99 % 0.00 in
05:08 50.5 °F 50.2 °F 29.74 in East 3.7 mph 6.0 mph 99 % 0.00 in
05:13 50.6 °F 50.3 °F 29.74 in East 4.2 mph 5.8 mph 99 % 0.00 in
05:18 50.6 °F 50.3 °F 29.74 in East 4.4 mph 6.0 mph 99 % 0.00 in
05:23 50.6 °F 50.3 °F 29.74 in ENE 3.5 mph 4.6 mph 99 % 0.00 in
05:28 50.5 °F 50.2 °F 29.74 in East 5.0 mph 6.9 mph 99 % 0.00 in
05:33 50.5 °F 50.2 °F 29.74 in ENE 2.8 mph 4.6 mph 99 % 0.00 in
05:38 50.5 °F 50.2 °F 29.74 in East 2.9 mph 3.5 mph 99 % 0.00 in
05:43 50.5 °F 50.2 °F 29.74 in East 4.7 mph 10.4 mph 99 % 0.01 in
05:48 50.5 °F 50.2 °F 29.74 in ENE 5.4 mph 9.2 mph 99 % 0.01 in
05:53 50.4 °F 50.1 °F 29.74 in ENE 6.5 mph 9.2 mph 99 % 0.01 in
05:59 50.4 °F 50.1 °F 29.74 in ENE 5.8 mph 9.2 mph 99 % 0.01 in
06:04 50.3 °F 50.0 °F 29.73 in East 4.9 mph 8.1 mph 99 % 0.01 in
06:09 50.3 °F 50.0 °F 29.73 in NE 5.1 mph 8.1 mph 99 % 0.02 in
06:14 50.3 °F 50.0 °F 29.73 in ENE 3.4 mph 6.9 mph 99 % 0.02 in
06:19 50.4 °F 50.1 °F 29.73 in NNE 3.3 mph 4.6 mph 99 % 0.03 in
06:24 50.4 °F 50.1 °F 29.73 in NE 4.3 mph 8.1 mph 99 % 0.03 in
06:29 50.4 °F 50.1 °F 29.73 in ENE 3.1 mph 7.0 mph 99 % 0.04 in
06:34 50.4 °F 50.1 °F 29.73 in NNE 5.4 mph 8.1 mph 99 % 0.04 in
06:44 50.4 °F 50.1 °F 29.73 in ENE 3.9 mph 5.0 mph 99 % 0.03 in
06:49 50.4 °F 50.1 °F 29.73 in NNE 4.1 mph 6.0 mph 99 % 0.03 in
06:55 50.4 °F 50.1 °F 29.73 in NE 4.2 mph 6.9 mph 99 % 0.03 in
07:00 50.4 °F 50.1 °F 29.73 in NNE 2.9 mph 7.0 mph 99 % 0.03 in
07:05 50.4 °F 50.1 °F 29.73 in NNE 2.7 mph 5.8 mph 99 % 0.03 in
07:10 50.4 °F 50.1 °F 29.73 in North 3.3 mph 5.0 mph 99 % 0.02 in
07:15 50.4 °F 50.1 °F 29.73 in ENE 3.2 mph 8.1 mph 99 % 0.02 in
07:20 50.4 °F 50.1 °F 29.73 in NE 3.8 mph 8.1 mph 99 % 0.01 in
07:25 50.4 °F 50.1 °F 29.73 in ENE 2.2 mph 4.6 mph 99 % 0.00 in
07:30 50.4 °F 50.1 °F 29.73 in ENE 4.9 mph 8.0 mph 99 % 0.00 in
07:35 50.4 °F 50.1 °F 29.73 in ENE 3.5 mph 6.9 mph 99 % 0.00 in
07:40 50.4 °F 50.1 °F 29.73 in ENE 3.7 mph 4.6 mph 99 % 0.00 in
07:45 50.4 °F 50.1 °F 29.74 in ENE 4.6 mph 7.0 mph 99 % 0.00 in
07:50 50.4 °F 50.1 °F 29.74 in ENE 2.6 mph 6.9 mph 99 % 0.00 in
07:55 50.4 °F 50.1 °F 29.74 in ENE 1.9 mph 3.5 mph 99 % 0.01 in
08:00 50.3 °F 50.0 °F 29.74 in ENE 4.9 mph 6.9 mph 99 % 0.01 in
08:05 50.3 °F 50.0 °F 29.74 in ENE 3.4 mph 8.1 mph 99 % 0.02 in
08:10 50.3 °F 50.0 °F 29.74 in ENE 3.8 mph 4.6 mph 99 % 0.03 in
08:16 50.3 °F 50.0 °F 29.74 in ENE 3.0 mph 7.0 mph 99 % 0.00 in
08:21 50.4 °F 50.1 °F 29.74 in ENE 3.0 mph 7.0 mph 99 % 0.00 in
08:26 50.4 °F 50.1 °F 29.74 in ENE 5.0 mph 8.0 mph 99 % 0.00 in
08:31 50.4 °F 50.1 °F 29.74 in ENE 5.0 mph 7.0 mph 99 % 0.00 in
08:36 50.4 °F 50.1 °F 29.74 in ENE 5.0 mph 7.0 mph 99 % 0.00 in
08:41 50.5 °F 50.2 °F 29.74 in ENE 2.0 mph 7.0 mph 99 % 0.00 in
08:45 50.5 °F 50.2 °F 29.74 in ENE 1.4 mph 3.5 mph 99 % 0.04 in
08:50 50.6 °F 50.3 °F 29.74 in ENE 1.7 mph 4.6 mph 99 % 0.04 in
08:55 50.6 °F 50.3 °F 29.74 in ENE 1.5 mph 2.0 mph 99 % 0.03 in
09:01 50.7 °F 50.4 °F 29.74 in ENE 1.6 mph 3.0 mph 99 % 0.03 in
09:06 50.7 °F 50.4 °F 29.74 in Calm   4.0 mph 99 % 0.00 in
09:11 50.7 °F 50.4 °F 29.75 in ENE 1.0 mph 3.0 mph 99 % 0.00 in
09:16 50.8 °F 50.5 °F 29.74 in ENE 3.8 mph 6.9 mph 99 % 0.00 in
09:21 50.8 °F 50.5 °F 29.74 in ENE 3.8 mph 6.9 mph 99 % 0.00 in
09:26 50.8 °F 50.5 °F 29.74 in ENE 5.2 mph 8.1 mph 99 % 0.00 in
09:31 50.8 °F 50.5 °F 29.74 in ENE 3.4 mph 6.9 mph 99 % 0.00 in
09:36 51.0 °F 50.7 °F 29.74 in ENE 3.1 mph 5.0 mph 99 % 0.00 in
09:41 51.1 °F 50.8 °F 29.74 in East 3.7 mph 5.8 mph 99 % 0.00 in
09:46 51.2 °F 50.9 °F 29.74 in ENE 2.6 mph 5.8 mph 99 % 0.00 in
09:51 51.4 °F 51.1 °F 29.74 in NE 2.8 mph 4.0 mph 99 % 0.00 in
09:56 52.0 °F 51.7 °F 29.74 in NE 3.1 mph 5.8 mph 99 % 0.00 in
10:01 52.6 °F 52.3 °F 29.74 in NNE 3.4 mph 8.1 mph 99 % 0.00 in
10:06 53.0 °F 52.7 °F 29.74 in ENE 3.1 mph 7.0 mph 99 % 0.00 in
10:11 52.7 °F 52.4 °F 29.74 in NE 3.3 mph 4.6 mph 99 % 0.00 in
10:16 52.6 °F 52.3 °F 29.73 in East 5.5 mph 9.2 mph 99 % 0.00 in
10:21 52.5 °F 52.2 °F 29.74 in NE 3.0 mph 5.0 mph 99 % 0.00 in
10:26 52.4 °F 52.1 °F 29.74 in ENE 4.6 mph 8.1 mph 99 % 0.00 in
10:31 52.1 °F 51.8 °F 29.74 in ENE 3.3 mph 8.1 mph 99 % 0.00 in
10:36 52.0 °F 51.7 °F 29.74 in NE 4.3 mph 4.6 mph 99 % 0.00 in
10:41 51.7 °F 51.4 °F 29.75 in NE 3.1 mph 8.1 mph 99 % 0.00 in
10:46 51.6 °F 51.3 °F 29.75 in ENE 4.6 mph 6.0 mph 99 % 0.00 in
10:52 51.6 °F 51.3 °F 29.75 in ENE 4.0 mph 6.9 mph 99 % 0.00 in
10:57 51.8 °F 51.5 °F 29.75 in East 5.2 mph 6.9 mph 99 % 0.00 in
11:02 51.8 °F 51.5 °F 29.75 in East 6.3 mph 8.1 mph 99 % 0.00 in
11:07 51.9 °F 51.6 °F 29.75 in East 6.3 mph 9.2 mph 99 % 0.00 in
11:12 51.9 °F 51.6 °F 29.75 in ENE 4.8 mph 11.5 mph 99 % 0.00 in
11:17 51.9 °F 51.6 °F 29.75 in ENE 4.3 mph 8.1 mph 99 % 0.00 in
11:22 51.9 °F 51.6 °F 29.75 in East 3.0 mph 4.6 mph 99 % 0.00 in
11:27 52.1 °F 51.8 °F 29.75 in NE 2.6 mph 3.5 mph 99 % 0.00 in
11:32 52.0 °F 51.7 °F 29.74 in ENE 3.3 mph 4.6 mph 99 % 0.00 in
11:37 52.1 °F 51.8 °F 29.75 in ENE 2.1 mph 3.5 mph 99 % 0.00 in
11:43 52.1 °F 51.8 °F 29.75 in East 2.0 mph 3.5 mph 99 % 0.00 in
11:48 52.3 °F 52.0 °F 29.75 in ENE 2.0 mph 3.5 mph 99 % 0.00 in
11:53 52.4 °F 52.1 °F 29.75 in East 2.2 mph 5.8 mph 99 % 0.00 in
11:58 52.4 °F 52.1 °F 29.75 in ENE 4.4 mph 8.1 mph 99 % 0.00 in
12:01 52.4 °F 52.1 °F 29.74 in ENE 2.5 mph 6.9 mph 99 % 0.00 in
12:06 52.4 °F 52.1 °F 29.74 in ENE 2.3 mph 4.6 mph 99 % 0.00 in
12:11 52.6 °F 52.3 °F 29.75 in ENE 3.4 mph 6.9 mph 99 % 0.00 in
12:16 52.6 °F 52.3 °F 29.74 in ENE 4.6 mph 5.0 mph 99 % 0.00 in
12:21 52.7 °F 52.4 °F 29.75 in ENE 4.6 mph 6.9 mph 99 % 0.00 in
12:26 52.8 °F 52.5 °F 29.75 in ENE 2.7 mph 4.0 mph 99 % 0.00 in
12:31 52.9 °F 52.6 °F 29.75 in NE 3.5 mph 4.6 mph 99 % 0.00 in
12:36 53.0 °F 52.7 °F 29.75 in ENE 3.2 mph 6.9 mph 99 % 0.00 in
12:41 53.1 °F 52.8 °F 29.75 in ENE 3.1 mph 5.8 mph 99 % 0.00 in
12:46 53.1 °F 52.8 °F 29.75 in East 3.8 mph 5.8 mph 99 % 0.00 in
12:51 53.2 °F 52.9 °F 29.74 in East 3.0 mph 5.0 mph 99 % 0.00 in
12:56 53.2 °F 52.9 °F 29.75 in East 3.6 mph 5.0 mph 99 % 0.00 in
13:01 53.3 °F 53.0 °F 29.74 in ENE 4.2 mph 4.6 mph 99 % 0.00 in
13:07 53.4 °F 53.1 °F 29.74 in East 4.3 mph 5.8 mph 99 % 0.00 in
13:12 53.6 °F 53.3 °F 29.74 in East 3.3 mph 6.0 mph 99 % 0.00 in
13:17 53.7 °F 53.4 °F 29.74 in East 4.1 mph 5.0 mph 99 % 0.00 in
13:22 53.8 °F 53.5 °F 29.74 in ENE 3.7 mph 5.0 mph 99 % 0.00 in
13:27 54.0 °F 53.7 °F 29.74 in ENE 3.4 mph 5.0 mph 99 % 0.00 in
13:32 54.2 °F 53.9 °F 29.74 in East 4.8 mph 6.0 mph 99 % 0.00 in
13:37 54.4 °F 54.1 °F 29.74 in East 3.5 mph 5.8 mph 99 % 0.00 in
13:42 54.4 °F 54.1 °F 29.74 in East 3.5 mph 5.8 mph 99 % 0.00 in
13:47 54.4 °F 54.1 °F 29.74 in ENE 2.8 mph 4.6 mph 99 % 0.00 in
13:48 54.4 °F 54.1 °F 29.74 in ENE 3.6 mph 6.0 mph 99 % 0.00 in
13:53 54.3 °F 54.0 °F 29.74 in ENE 3.2 mph 5.0 mph 99 % 0.00 in
13:58 54.2 °F 53.6 °F 29.74 in ENE 3.0 mph 4.6 mph 98 % 0.00 in
14:03 54.2 °F 53.6 °F 29.74 in NE 3.5 mph 4.6 mph 98 % 0.00 in
14:09 54.2 °F 53.6 °F 29.74 in East 3.2 mph 3.5 mph 98 % 0.00 in
14:14 54.3 °F 53.7 °F 29.74 in ENE 4.0 mph 5.8 mph 98 % 0.00 in
14:19 54.4 °F 53.8 °F 29.75 in East 3.2 mph 5.0 mph 98 % 0.00 in
14:24 54.5 °F 53.9 °F 29.75 in East 3.1 mph 5.0 mph 98 % 0.00 in
14:29 54.6 °F 54.0 °F 29.75 in ENE 2.6 mph 3.5 mph 98 % 0.00 in
14:34 54.8 °F 54.2 °F 29.74 in ENE 3.8 mph 4.6 mph 98 % 0.00 in
14:39 54.9 °F 54.3 °F 29.74 in ENE 3.5 mph 5.0 mph 98 % 0.00 in
14:44 54.9 °F 54.3 °F 29.74 in ENE 4.2 mph 5.8 mph 98 % 0.00 in
14:49 54.9 °F 54.3 °F 29.75 in East 3.4 mph 5.8 mph 98 % 0.00 in
14:54 55.0 °F 54.4 °F 29.74 in East 5.0 mph 6.9 mph 98 % 0.00 in
14:59 55.2 °F 54.6 °F 29.74 in East 5.0 mph 6.9 mph 98 % 0.00 in
15:05 55.4 °F 54.8 °F 29.74 in East 3.8 mph 6.0 mph 98 % 0.00 in
15:10 55.5 °F 54.9 °F 29.74 in East 3.1 mph 6.9 mph 98 % 0.00 in
15:11 55.5 °F 54.9 °F 29.74 in East 3.0 mph 7.0 mph 98 % 0.00 in
15:16 55.5 °F 54.9 °F 29.74 in East 5.0 mph 7.0 mph 98 % 0.00 in
15:20 55.5 °F 54.7 °F 29.74 in ENE 5.9 mph 6.0 mph 97 % 0.00 in
15:26 55.7 °F 54.9 °F 29.74 in East 3.0 mph 7.0 mph 97 % 0.00 in
15:31 56.0 °F 55.4 °F 29.74 in East 3.0 mph 6.0 mph 98 % 0.00 in
15:36 56.4 °F 55.8 °F 29.73 in ENE 3.0 mph 6.0 mph 98 % 0.00 in
15:41 57.0 °F 56.4 °F 29.73 in ENE 4.2 mph 5.8 mph 98 % 0.00 in
15:46 57.3 °F 56.7 °F 29.73 in ENE 3.2 mph 3.5 mph 98 % 0.00 in
15:51 57.4 °F 56.8 °F 29.73 in ENE 5.0 mph 7.0 mph 98 % 0.00 in
15:56 57.5 °F 56.9 °F 29.73 in East 6.0 mph 8.0 mph 98 % 0.00 in
16:01 57.5 °F 56.7 °F 29.73 in East 3.6 mph 5.8 mph 97 % 0.00 in
16:06 57.7 °F 57.1 °F 29.73 in East 3.6 mph 5.0 mph 98 % 0.00 in
16:11 57.8 °F 57.0 °F 29.73 in East 3.2 mph 8.1 mph 97 % 0.00 in
16:16 58.0 °F 57.2 °F 29.73 in ENE 3.5 mph 5.8 mph 97 % 0.00 in
16:21 58.1 °F 57.3 °F 29.73 in East 3.1 mph 5.0 mph 97 % 0.00 in
16:26 58.4 °F 57.8 °F 29.73 in ENE 3.7 mph 4.6 mph 98 % 0.00 in
16:31 58.5 °F 57.7 °F 29.73 in East 3.4 mph 5.0 mph 97 % 0.00 in
16:36 58.7 °F 57.9 °F 29.73 in East 5.8 mph 7.0 mph 97 % 0.00 in
16:41 58.8 °F 58.0 °F 29.73 in ESE 4.6 mph 6.0 mph 97 % 0.00 in
16:46 59.0 °F 58.2 °F 29.73 in East 3.8 mph 6.9 mph 97 % 0.00 in
16:51 59.2 °F 58.3 °F 29.73 in East 3.7 mph 5.8 mph 97 % 0.00 in
16:56 59.2 °F 58.3 °F 29.73 in East 3.1 mph 5.0 mph 97 % 0.00 in
17:01 59.2 °F 58.1 °F 29.73 in East 4.0 mph 5.0 mph 96 % 0.00 in
17:06 59.2 °F 58.1 °F 29.73 in East 3.6 mph 5.0 mph 96 % 0.00 in
17:11 59.3 °F 58.2 °F 29.73 in East 2.7 mph 3.5 mph 96 % 0.00 in
17:16 59.4 °F 58.3 °F 29.73 in East 3.8 mph 5.0 mph 96 % 0.00 in
17:22 59.5 °F 58.4 °F 29.73 in East 3.8 mph 4.6 mph 96 % 0.00 in
17:27 59.5 °F 58.4 °F 29.73 in ENE 1.5 mph 3.5 mph 96 % 0.00 in
17:32 59.5 °F 58.1 °F 29.74 in ENE 1.6 mph 3.5 mph 95 % 0.00 in
17:37 59.4 °F 58.0 °F 29.74 in ENE 2.5 mph 3.5 mph 95 % 0.00 in
17:42 59.2 °F 57.5 °F 29.74 in ENE 1.2 mph 2.3 mph 94 % 0.00 in
17:47 59.1 °F 57.4 °F 29.74 in ENE 0.4 mph 1.2 mph 94 % 0.00 in
17:52 59.0 °F 57.3 °F 29.74 in ENE 0.4 mph 1.2 mph 94 % 0.00 in
17:57 58.9 °F 57.2 °F 29.74 in ENE 1.3 mph 2.3 mph 94 % 0.00 in
18:02 58.9 °F 57.2 °F 29.74 in East 2.6 mph 4.6 mph 94 % 0.00 in
18:07 58.9 °F 57.5 °F 29.74 in East 2.5 mph 5.0 mph 95 % 0.00 in
18:12 58.9 °F 57.5 °F 29.74 in East 1.7 mph 3.5 mph 95 % 0.00 in
18:18 58.9 °F 57.5 °F 29.74 in East 1.8 mph 3.5 mph 95 % 0.00 in
18:23 58.9 °F 57.5 °F 29.74 in East 0.2 mph 1.2 mph 95 % 0.00 in
18:28 58.9 °F 57.5 °F 29.74 in East 0.5 mph 2.3 mph 95 % 0.00 in
18:33 58.9 °F 57.5 °F 29.74 in East 0.1 mph 2.3 mph 95 % 0.00 in
18:38 58.9 °F 57.5 °F 29.74 in East 0.3 mph 1.2 mph 95 % 0.00 in
18:43 59.0 °F 57.6 °F 29.74 in Calm   1.2 mph 95 % 0.00 in
18:48 59.1 °F 57.7 °F 29.74 in Calm     95 % 0.00 in
18:53 59.1 °F 57.7 °F 29.74 in Calm   1.2 mph 95 % 0.00 in
18:58 59.2 °F 57.8 °F 29.74 in East 0.1 mph 1.2 mph 95 % 0.00 in
19:04 59.3 °F 57.9 °F 29.75 in East 0.3 mph 2.3 mph 95 % 0.00 in
19:09 59.4 °F 58.0 °F 29.75 in Calm     95 % 0.00 in
19:14 59.4 °F 58.0 °F 29.75 in East 0.4 mph 1.2 mph 95 % 0.00 in
19:19 59.5 °F 58.1 °F 29.76 in East 0.3 mph 3.5 mph 95 % 0.00 in
19:24 59.5 °F 58.1 °F 29.76 in ENE 0.6 mph 2.3 mph 95 % 0.00 in
19:29 59.4 °F 58.0 °F 29.76 in Calm     95 % 0.00 in
19:34 59.4 °F 58.0 °F 29.77 in North 1.0 mph 3.0 mph 95 % 0.00 in
19:39 59.0 °F 57.0 °F 29.77 in NNW 2.8 mph 3.5 mph 93 % 0.00 in
19:44 58.5 °F 56.2 °F 29.78 in WNW 2.9 mph 6.9 mph 92 % 0.00 in
19:49 58.0 °F 55.4 °F 29.78 in WNW 2.9 mph 3.5 mph 91 % 0.00 in
19:54 57.7 °F 55.1 °F 29.78 in WNW 0.2 mph 2.3 mph 91 % 0.00 in
19:59 57.4 °F 54.8 °F 29.78 in Calm     91 % 0.00 in
20:04 57.2 °F 54.6 °F 29.78 in Calm   2.3 mph 91 % 0.00 in
20:10 57.0 °F 54.7 °F 29.78 in Calm     92 % 0.00 in
20:15 56.8 °F 54.5 °F 29.78 in Calm   1.2 mph 92 % 0.00 in
20:20 56.6 °F 54.3 °F 29.78 in Calm     92 % 0.00 in
20:25 56.4 °F 54.1 °F 29.78 in Calm     92 % 0.00 in
20:30 56.2 °F 53.9 °F 29.78 in Calm     92 % 0.00 in
20:35 56.1 °F 54.1 °F 29.78 in Calm     93 % 0.00 in
20:40 55.9 °F 53.9 °F 29.79 in Calm     93 % 0.00 in
20:45 55.8 °F 53.8 °F 29.78 in Calm     93 % 0.00 in
20:50 55.7 °F 53.7 °F 29.79 in Calm     93 % 0.00 in
20:55 55.7 °F 54.0 °F 29.79 in Calm     94 % 0.00 in
21:00 55.6 °F 53.9 °F 29.79 in Calm     94 % 0.00 in
21:06 55.5 °F 53.8 °F 29.79 in Calm   1.0 mph 94 % 0.00 in
21:09 55.5 °F 53.8 °F 29.79 in Calm     94 % 0.00 in
21:14 55.4 °F 53.7 °F 29.79 in Calm     94 % 0.00 in
21:19 55.3 °F 53.9 °F 29.79 in Calm     95 % 0.00 in
21:24 55.2 °F 53.8 °F 29.79 in Calm     95 % 0.00 in
21:29 55.1 °F 53.7 °F 29.79 in WNW 0.2 mph 1.2 mph 95 % 0.00 in
21:34 55.0 °F 53.6 °F 29.79 in WNW 0.4 mph 2.3 mph 95 % 0.00 in
21:39 54.9 °F 53.5 °F 29.79 in Calm     95 % 0.00 in
21:44 54.8 °F 53.4 °F 29.79 in Calm     95 % 0.00 in
21:49 54.6 °F 53.2 °F 29.79 in Calm     95 % 0.00 in
21:55 54.4 °F 53.0 °F 29.79 in Calm     95 % 0.00 in
22:00 54.3 °F 52.9 °F 29.79 in Calm     95 % 0.00 in
22:05 54.1 °F 52.7 °F 29.80 in Calm     95 % 0.00 in
22:10 54.0 °F 52.6 °F 29.80 in Calm     95 % 0.00 in
22:15 53.9 °F 52.5 °F 29.81 in WNW 0.1 mph 1.2 mph 95 % 0.00 in
22:20 53.8 °F 52.4 °F 29.80 in Calm     95 % 0.00 in
22:25 53.7 °F 52.3 °F 29.80 in Calm     95 % 0.00 in
22:30 53.7 °F 52.3 °F 29.80 in Calm     95 % 0.00 in
22:35 53.6 °F 52.5 °F 29.81 in WNW 0.2 mph 1.2 mph 96 % 0.00 in
22:40 53.6 °F 52.5 °F 29.81 in Calm     96 % 0.00 in
22:45 53.6 °F 52.5 °F 29.81 in Calm     96 % 0.00 in
22:51 53.6 °F 52.5 °F 29.81 in Calm   2.0 mph 96 % 0.00 in
22:56 53.6 °F 52.5 °F 29.81 in Calm   1.0 mph 96 % 0.00 in
23:01 53.6 °F 52.5 °F 29.81 in Calm     96 % 0.00 in
23:06 53.6 °F 52.5 °F 29.81 in Calm   1.0 mph 96 % 0.00 in
23:11 53.7 °F 52.6 °F 29.81 in Calm     96 % 0.00 in
23:16 53.7 °F 52.6 °F 29.81 in Calm     96 % 0.00 in
23:21 53.7 °F 52.6 °F 29.81 in Calm     96 % 0.00 in
23:26 53.7 °F 52.6 °F 29.81 in Calm   1.0 mph 96 % 0.00 in
23:31 53.7 °F 52.9 °F 29.82 in WNW 1.0 mph 2.0 mph 97 % 0.00 in
23:36 53.8 °F 53.0 °F 29.81 in Calm     97 % 0.00 in
23:41 53.8 °F 53.0 °F 29.81 in Calm     97 % 0.00 in
23:46 53.8 °F 53.0 °F 29.81 in Calm     97 % 0.00 in
23:51 53.8 °F 53.0 °F 29.82 in Calm     97 % 0.00 in
23:56 53.7 °F 52.9 °F 29.82 in Calm     97 % 0.00 in
Crab Meadow Weather
Compliments of Weather Underground - 3 mb

Script developed by  Jim McMurry - jmcmurry@mwt.net Adapted for the template by  Wim van der Kuil - Leuven-Template.eu

Weather Terms: Gustnado - A gust front tornado. A small, weak, short-lived tornado that occurs along a gust front - the leading edge of a thunderstorm, caused by rain-cooled air flowing out from the storm's downdraft. A gustnado is often visible as a debris cloud or dust whirl.